STARLINK-1931 (46790 NORAD) Tracking and Keplerian Element Data

This shows tracking and keplerian element data for the satellite.

Feedback or suggestion? Click here.




ElementValue
Catalog46790
NameSTARLINK-1931
Epoch Orbit1305
Epoch Day15.18319614
Epoch Year2021
RAAN119.3119
Inclination53.0511
Eccentricity0.0003772
Argument of Perigee35.688
Mean Anonmoly324.4365
Mean Motion15.18371332
Decay Rate-0.00314313
L11 46790U 20074BD 21015.18319614 -.00314313 00000-0 -15750-1 0 9997
L22 46790 53.0511 119.3119 0003772 35.6880 324.4365 15.18371332 13057

Live tracking and technical data element details for STARLINK-1931 (NORAD 46790). STARLINK-1931 can be tracked NOW for your location showing map with azimuth and elevation plus other details from your city location.

Track the satellite on the map from your city or location and see movement details for azimuth, elevation, latitude, longitude, range, height, and movement on the map or in text.







IsCatalogInMostPopularTable: catalog: 46790, numindb: 26
Update: records affected: 1



GetName: 46790 STARLINK-1931

Hit Count: updated at: Fri, 15 Jan 2021 23:55:13 GMT